User: anonymous   Login
Location: Huntington Beach
(33.6600°N, 117.9980°W)
Time: 05:52:12
(UTC-07:00)
Language:

SL-16 R/B - Orbit

View from above orbital plane
View from above orbital plane
View from above satellite
View from above satellite

Ground track
Ground track

The orbit data is extracted from the following two-line orbital elements,

1 28353U 04021B   17291.85959664  .00000165  00000-0  11167-3 0  9991
2 28353  71.0016 179.1028 0005267 346.9518  13.1467 14.14207225689645
Epoch (UTC): 18 October 2017 20:37:49
Eccentricity: 0.0005267
inclination: 71.0016°
perigee height: 841 km
apogee height: 849 km
right ascension of ascending node: 179.1028°
argument of perigee: 346.9518°
revolutions per day: 14.14207225
mean anomaly at epoch: 13.1467°
orbit number at epoch: 68964

The dashed part of the orbit path shows where the satellite is in the earth's shadow,  

DLR